This is the latest recevied weather packets stored in our database for station/object KD4KKF. If no packets are shown the sender has not sent any weather packets the latest 10 day(s).
| Time | Temp. | Humidity | Pressure | Rain* | Wind** | Luminosity | Snow |
|---|---|---|---|---|---|---|---|
| 1777486599 | 25.56° C | 89% | 1012 hPa | 0 mm | - | 390 W/m² | - |
| 1777486298 | 25.56° C | 91% | 1012 hPa | 0 mm | - | 346 W/m² | - |
| 1777485995 | 25° C | 91% | 1012.3 hPa | 0 mm | - | 543 W/m² | - |
| 1777485691 | 25° C | 91% | 1012.3 hPa | 0 mm | - | 266 W/m² | - |
| 1777485387 | 25° C | 90% | 1012.4 hPa | 0 mm | - | 217 W/m² | - |
| 1777485083 | 25° C | 90% | 1012.4 hPa | 0 mm | - | 352 W/m² | - |
| 1777484780 | 25° C | 90% | 1012.4 hPa | 0 mm | - | 383 W/m² | - |
| 1777484476 | 25° C | 90% | 1012.5 hPa | 0 mm | - | 324 W/m² | - |
| 1777484174 | 25° C | 90% | 1012.5 hPa | 0 mm | - | 770 W/m² | - |
| 1777483869 | 24.44° C | 92% | 1012.5 hPa | 0 mm | - | 550 W/m² | - |
| 1777483566 | 24.44° C | 93% | 1012.7 hPa | 0 mm | - | 473 W/m² | - |
| 1777483261 | 23.89° C | 94% | 1013 hPa | 0 mm | - | 217 W/m² | - |
| 1777482957 | 25° C | 92% | 1012.9 hPa | 0 mm | - | 662 W/m² | - |
| 1777482653 | 25° C | 93% | 1013.1 hPa | 0 mm | - | 909 W/m² | - |
| 1777482350 | 25° C | 92% | 1013 hPa | 0 mm | - | 551 W/m² | - |
| 1777482048 | 23.89° C | 94% | 1013 hPa | 0 mm | - | 588 W/m² | - |
| 1777481745 | 24.44° C | 93% | 1013.1 hPa | 0 mm | - | 634 W/m² | - |
| 1777481443 | 24.44° C | 94% | 1012.9 hPa | 0 mm | - | 494 W/m² | - |
| 1777481139 | 24.44° C | 94% | 1013 hPa | 0 mm | - | 430 W/m² | - |
| 1777480835 | 24.44° C | 95% | 1013 hPa | 0 mm | - | 421 W/m² | - |
| 1777480532 | 23.89° C | 95% | 1013 hPa | 0 mm | - | 1108 W/m² | - |
| 1777480229 | 23.89° C | 97% | 1012.9 hPa | 0 mm | - | 352 W/m² | - |
| 1777479925 | 23.33° C | 97% | 1013 hPa | 0 mm | - | 282 W/m² | - |
| 1777479622 | 22.78° C | 99% | 1013.2 hPa | 0 mm | - | 346 W/m² | - |
| 1777479320 | 22.78° C | 99% | 1013.4 hPa | 0 mm | - | 251 W/m² | - |
* Rain latest hour (hover to see other rain measurements)
** Current wind speed in m/s (hover to see current wind gust speed)